Regional Weather Roundup
Issued by NWS

Home | Current Version | Previous Version | Graphics & Text | Print | Product List | Glossary On
Versions: 1 2 3 4 5 6 7 8 9 10 11 12 13 14 15 16 17 18 19 20 21 22 23 24 25 26 27 28 29 30 31 32 33 34 35 36 37 38 39 40 41 42 43 44 45 46 47 48 49 50
000
ASUS45 KCYS 021010
RWRWY

WYOMING REGIONAL WEATHER ROUNDUP
NATIONAL WEATHER SERVICE CHEYENNE WY
400 AM MDT SAT MAY 02 2015

NOTE:  "FAIR" INDICATES FEW OR NO CLOUDS BELOW 12,000 FEET
WITH NO SIGNIFICANT WEATHER AND/OR OBSTRUCTIONS TO VISIBILITY.

WYZ001-021100-
YELLOWSTONE NATIONAL PARK

CITY           SKY/WX    TMP DP  RH WIND       PRES   REMARKS
LK YELLOWSTONE   N/A     26  21  81 CALM      30.06S
W YELLOWSTONE  NOT AVBL

$$
WYZ002>013-054>058-071-098>099-021100-
NORTHERN WYOMING

CITY           SKY/WX    TMP DP  RH WIND       PRES   REMARKS
JACKSON        FAIR      34  27  75 NE3       30.02F
CODY           FAIR      48  19  32 SW5       29.89S
GREYBULL       FAIR      46  28  49 SE5       29.84F
WORLAND        FAIR      44  30  57 SE7       29.86S
SHERIDAN       FAIR      45  31  58 NE7       29.81S
BUFFALO        FAIR      54  22  28 NW8       29.86F
GILLETTE       FAIR      53  40  61 SW17      29.83F
HULETT         FAIR      59  39  47 SW10G16   29.85F
NEWCASTLE      FAIR      52  41  66 E7        29.89F

$$
WYZ014>020-022>026-101>103-021100-
CENTRAL WYOMING

CITY           SKY/WX    TMP DP  RH WIND       PRES   REMARKS
BIG PINEY      FAIR      33  22  63 E5        30.07F WCI  29
PINEDALE       FAIR      30  23  74 NW6       30.08S WCI  24
DUBOIS         FAIR      37  19  48 W10       30.01F WCI  30
LANDER         FAIR      51  23  33 SW12G17   29.94F
RIVERTON       FAIR      46  21  37 W7        29.95F
CASPER         FAIR      35  29  78 S5        29.94S WCI  31
DOUGLAS        FAIR      43  41  93 SE6       29.92F

$$
WYZ021-027>030-104>119-021100-
SOUTHERN WYOMING

CITY           SKY/WX    TMP DP  RH WIND       PRES   REMARKS
EVANSTON       FAIR      48  32  53 S7        30.08F
KEMMERER       FAIR      41  28  60 CALM      30.09S
FORT BRIDGER   SUNNY     48  32  53 W6        30.10F
ROCK SPRINGS   FAIR      48  30  49 SW9       30.06F
DIXON          FAIR      36  32  86 CALM      30.11S
RAWLINS        FAIR      48  30  49 SW10      30.05S
SARATOGA       FAIR      41  32  70 CALM      30.08S
LARAMIE        FAIR      42  33  70 W10       30.06F
CHEYENNE       FAIR      43  37  79 SW9       30.01F
TORRINGTON     FAIR      48  45  89 E7        29.90F
PINE BLUFFS    FAIR      43  43 100 SW3       29.99F

$$


USA.gov is the U.S. government's official web portal to all federal, state and local government web resources and services.